M0ZPG Weather Reports


time (UTC)temp
F
wind
direction
speed
knots
gust
knots
rain 1hr
in
rain 24hr
in
rain mn
in
humidity
%
barometer
mb
20260510101803 55 54 2.6 12.2 0.00 0.00 0.00 72 1016.0
20260510100904 55 76 2.6 8.7 0.00 0.00 0.00 71 1016.0
20260510100005 55 52 2.6 8.7 0.00 0.00 0.00 71 1015.9
20260510095403 54 24 2.6 11.3 0.00 0.00 0.00 71 1015.9
20260510094503 54 49 2.6 8.7 0.00 0.00 0.00 72 1016.0
20260510093605 54 24 2.6 13.0 0.00 0.00 0.00 71 1016.2
20260510092703 54 20 2.6 9.6 0.00 0.00 0.00 72 1016.1
20260510091803 54 49 1.7 7.0 0.00 0.00 0.00 73 1016.2
20260510090905 53 38 3.5 13.9 0.00 0.00 0.00 72 1016.2
20260510090005 53 20 3.5 12.2 0.00 0.00 0.00 73 1016.4
20260510085403 53 38 3.5 12.2 0.00 0.00 0.00 74 1016.2
20260510084717 53 63 2.6 12.2 0.00 0.00 0.00 74 1016.3
20260510083814 53 38 2.6 9.6 0.00 0.00 0.00 75 1016.4
20260510082703 52 30 2.6 11.3 0.00 0.00 0.00 76 1016.4
20260510081805 52 33 3.5 11.3 0.00 0.00 0.00 76 1016.5
20260510080903 52 31 3.5 12.2 0.00 0.00 0.00 77 1016.4
20260510080219 52 63 2.6 8.7 0.00 0.00 0.00 77 1016.3
20260510075404 52 28 2.6 10.4 0.00 0.00 0.00 78 1016.3
20260510074718 52 38 1.7 10.4 0.00 0.00 0.00 78 1016.3
20260510073815 52 30 3.5 10.4 0.00 0.00 0.00 79 1016.3
20260510072705 51 50 1.7 11.3 0.00 0.00 0.00 79 1016.3
20260510071803 51 60 3.5 11.3 0.00 0.00 0.00 80 1016.3
20260510070905 51 38 3.5 10.4 0.00 0.00 0.00 80 1016.2
20260510070004 51 46 2.6 12.2 0.00 0.00 0.00 80 1016.3
20260510065403 51 51 1.7 7.8 0.00 0.00 0.00 80 1016.2
20260510064503 51 49 2.6 8.7 0.00 0.00 0.00 81 1016.3
20260510063605 50 43 1.7 8.7 0.00 0.00 0.00 81 1016.3
20260510062703 50 71 1.7 9.6 0.00 0.00 0.00 81 1016.2
20260510061805 50 33 2.6 11.3 0.00 0.00 0.00 81 1016.1
20260510060903 50 45 1.7 7.8 0.00 0.00 0.00 81 1016.2
20260510060004 50 28 2.6 11.3 0.00 0.00 0.00 81 1016.1
20260510055405 50 42 1.7 7.8 0.00 0.00 0.00 81 1016.0
20260510054505 50 40 1.7 11.3 0.00 0.00 0.00 82 1015.9
20260510053603 50 25 2.6 10.4 0.00 0.00 0.00 82 1015.9
20260510052919 50 39 1.7 8.7 0.00 0.00 0.00 82 1015.9
20260510052016 50 45 2.6 8.7 0.00 0.00 0.00 82 1015.9
20260510051118 50 55 1.7 8.7 0.00 0.00 0.00 83 1016.0
20260510050216 50 47 1.7 7.0 0.00 0.00 0.00 83 1016.0
20260510045405 50 58 1.7 8.7 0.00 0.00 0.00 84 1016.0
20260510044505 50 24 0.9 7.8 0.00 0.00 0.00 84 1016.0
20260510043817 50 27 0.9 7.8 0.00 0.00 0.00 84 1016.0
20260510042703 50 34 1.7 7.0 0.00 0.00 0.00 84 1016.2
20260510042017 50 25 0.9 7.0 0.00 0.00 0.00 84 1016.1
20260510041114 50 2 1.7 6.1 0.00 0.00 0.00 85 1016.2
20260510040216 50 35 1.7 7.0 0.00 0.00 0.00 85 1016.3
20260510035403 50 36 0.9 7.0 0.00 0.00 0.00 85 1016.3
20260510034505 50 26 0.9 7.0 0.00 0.00 0.00 85 1016.3
20260510033605 50 27 0.9 6.1 0.00 0.00 0.00 84 1016.4
20260510032703 50 46 0.9 2.6 0.00 0.00 0.00 84 1016.6
20260510031806 50 33 0.9 5.2 0.00 0.00 0.00 84 1016.6
20260510030905 50 23 0.9 5.2 0.00 0.00 0.00 84 1016.5
20260510030005 50 6 0.9 5.2 0.00 0.00 0.00 83 1016.6
20260510025404 50 10 0.9 3.5 0.00 0.00 0.00 83 1016.7
20260510024503 50 32 0.9 2.6 0.00 0.00 0.00 82 1016.7
20260510023603 50 34 0.9 7.0 0.00 0.00 0.00 82 1016.7
20260510022706 50 33 1.7 7.8 0.00 0.00 0.00 82 1016.7
20260510021804 50 25 1.7 7.8 0.00 0.00 0.00 81 1016.5
20260510020903 51 29 1.7 7.8 0.00 0.00 0.00 80 1016.5
20260510020005 51 33 2.6 12.2 0.00 0.00 0.00 79 1016.5
20260510015404 51 30 2.6 12.2 0.00 0.00 0.00 78 1016.5
20260510014505 51 43 1.7 7.0 0.00 0.00 0.00 77 1016.5
20260510013603 52 16 1.7 7.8 0.00 0.00 0.00 76 1016.5
20260510012916 52 10 1.7 7.8 0.00 0.00 0.00 76 1016.6
20260510011806 52 49 0.9 5.2 0.00 0.00 0.00 76 1016.6
20260510011116 52 61 0.9 5.2 0.00 0.00 0.00 76 1016.6
20260510010004 52 40 1.7 5.2 0.00 0.00 0.00 75 1016.5
20260510005403 52 31 1.7 5.2 0.00 0.00 0.00 74 1016.5
20260510004717 52 43 1.7 7.0 0.00 0.00 0.00 73 1016.4
20260510003603 53 41 0.9 3.5 0.00 0.00 0.00 72 1016.3
20260510002703 53 33 0.9 7.0 0.00 0.00 0.00 71 1016.4
20260510001808 53 35 0.9 7.0 0.00 0.00 0.00 70 1016.6
20260510000903 54 34 0.9 4.3 0.00 0.00 0.00 69 1016.4
20260510000003 54 35 0.9 4.3 0.00 0.00 0.00 68 1016.4
20260509235403 54 36 0.9 5.2 0.00 0.00 0.00 67 1016.5
20260509234718 54 17 1.7 7.8 0.00 0.00 0.00 67 1016.4
20260509233603 54 78 0.9 6.1 0.00 0.00 0.00 69 1016.4
20260509232703 54 77 0.9 6.1 0.00 0.00 0.00 69 1016.4
20260509231805 55 68 0.9 5.2 0.00 0.00 0.00 69 1016.8
20260509230905 55 89 1.7 8.7 0.00 0.00 0.00 68 1016.7
20260509230006 55 81 1.7 6.1 0.00 0.00 0.00 68 1016.7
20260509225403 55 83 0.9 4.3 0.00 0.00 0.00 67 1016.8
20260509224503 55 80 0.9 5.2 0.00 0.00 0.00 66 1016.6
20260509223603 55 63 0.9 7.0 0.00 0.00 0.00 65 1016.7
20260509222703 55 36 0.9 2.6 0.00 0.00 0.00 63 1016.7
20260509221803 55 58 0.9 6.1 0.00 0.00 0.00 63 1016.6
20260509221118 56 61 0.9 2.6 0.00 0.00 0.00 61 1016.5
20260509220003 56 78 0.9 2.6 0.00 0.00 0.00 59 1016.7
20260509215403 56 76 0.9 3.5 0.00 0.00 0.00 59 1016.7
20260509214506 56 85 0.9 5.2 0.00 0.00 0.00 59 1016.7
20260509213816 56 81 1.7 4.3 0.00 0.00 0.00 58 1016.7
20260509212016 57 88 1.7 6.1 0.00 0.00 0.00 57 1016.5
20260509210003 57 76 0.9 7.0 0.00 0.00 0.00 55 1016.2
20260509205403 57 70 0.9 7.0 0.00 0.00 0.00 55 1016.3
20260509204508 58 87 1.7 4.3 0.00 0.00 0.00 54 1016.3
20260509202703 58 86 1.7 6.1 0.00 0.00 0.00 53 1016.3
20260509201805 58 79 1.7 7.8 0.00 0.00 0.00 51 1016.2
20260509200905 58 95 1.7 5.2 0.00 0.00 0.00 50 1016.2
20260509200005 59 89 1.7 5.2 0.00 0.00 0.00 49 1016.2
20260509195405 59 74 1.7 7.0 0.00 0.00 0.00 49 1016.2
20260509194504 59 92 1.7 7.0 0.00 0.00 0.00 48 1016.0
20260509193812 59 79 1.7 6.1 0.00 0.00 0.00 47 1016.0
20260509192703 60 81 2.6 7.0 0.00 0.00 0.00 47 1015.9
20260509191115 60 88 1.7 7.0 0.00 0.00 0.00 48 1015.5
20260509190006 61 83 2.6 9.6 0.00 0.00 0.00 47 1015.5
20260509185405 61 88 3.5 9.6 0.00 0.00 0.00 48 1015.6
20260509184503 61 89 3.5 9.6 0.00 0.00 0.00 48 1015.6
20260509183606 62 90 2.6 10.4 0.00 0.00 0.00 48 1015.5
20260509182915 62 88 2.6 9.6 0.00 0.00 0.00 48 1015.6
20260509181803 62 87 2.6 10.4 0.00 0.00 0.00 48 1015.6
20260509180906 62 84 3.5 10.4 0.00 0.00 0.00 47 1015.6
20260509180004 63 95 1.7 10.4 0.00 0.00 0.00 46 1015.5
20260509175614 63 95 1.7 7.8 0.00 0.00 0.00 46 1015.4
20260509174506 63 91 4.3 9.6 0.00 0.00 0.00 45 1015.3
20260509173814 64 94 3.5 9.6 0.00 0.00 0.00 45 1015.3
20260509172703 65 92 4.3 8.7 0.00 0.00 0.00 45 1015.3
20260509171805 65 82 3.5 9.6 0.00 0.00 0.00 45 1015.3
20260509170906 66 88 3.5 8.7 0.00 0.00 0.00 44 1015.4
20260509170005 66 80 2.6 8.7 0.00 0.00 0.00 41 1015.4
20260509164505 67 89 2.6 8.7 0.00 0.00 0.00 40 1015.5
20260509163603 67 85 3.5 9.6 0.00 0.00 0.00 41 1015.4
20260509162917 68 91 2.6 9.6 0.00 0.00 0.00 41 1015.4
20260509161805 68 87 2.6 8.7 0.00 0.00 0.00 43 1015.4
20260509160904 68 89 2.6 8.7 0.00 0.00 0.00 43 1015.5
20260509160004 68 94 3.5 11.3 0.00 0.00 0.00 42 1015.7
20260509154503 69 97 2.6 8.7 0.00 0.00 0.00 41 1015.7
20260509153606 69 95 3.5 9.6 0.00 0.00 0.00 40 1015.7
20260509152703 70 94 1.7 7.8 0.00 0.00 0.00 41 1015.7
20260509151805 69 79 2.6 7.8 0.00 0.00 0.00 40 1015.8
20260509150903 69 91 2.6 8.7 0.00 0.00 0.00 40 1015.7
20260509150005 70 74 2.6 8.7 0.00 0.00 0.00 39 1015.6
20260509145405 69 69 1.7 8.7 0.00 0.00 0.00 40 1015.6
20260509144504 69 79 2.6 9.6 0.00 0.00 0.00 41 1015.5
20260509143816 69 84 2.6 8.7 0.00 0.00 0.00 42 1015.6
20260509142705 70 93 2.6 7.0 0.00 0.00 0.00 41 1015.2
20260509141803 69 95 3.5 13.9 0.00 0.00 0.00 42 1015.2
20260509140904 70 88 2.6 8.7 0.00 0.00 0.00 42 1015.4
20260509140006 70 83 3.5 8.7 0.00 0.00 0.00 41 1015.5
20260509135405 70 67 2.6 8.7 0.00 0.00 0.00 39 1015.5
20260509134505 70 87 3.5 9.6 0.00 0.00 0.00 40 1015.6
20260509133603 70 86 2.6 12.2 0.00 0.00 0.00 41 1015.5
20260509132704 70 92 2.6 8.7 0.00 0.00 0.00 45 1015.5
20260509131806 70 84 2.6 7.8 0.00 0.00 0.00 43 1015.5
20260509130906 70 85 2.6 7.8 0.00 0.00 0.00 44 1015.6
20260509130004 70 74 3.5 9.6 0.00 0.00 0.00 43 1015.7
20260509125403 70 70 2.6 7.8 0.00 0.00 0.00 44 1015.7
20260509124505 69 73 2.6 10.4 0.00 0.00 0.00 42 1015.9
20260509123603 69 75 2.6 10.4 0.00 0.00 0.00 45 1016.0
20260509122914 69 68 2.6 8.7 0.00 0.00 0.00 45 1016.0
20260509121805 69 82 2.6 10.4 0.00 0.00 0.00 45 1016.0
20260509121114 69 64 1.7 10.4 0.00 0.00 0.00 45 1016.1
20260509120005 68 76 3.5 10.4 0.00 0.00 0.00 46 1016.2
20260509115404 68 72 2.6 10.4 0.00 0.00 0.00 47 1016.2
20260509114505 68 34 1.7 7.8 0.00 0.00 0.00 48 1016.2
20260509113603 67 70 2.6 8.7 0.00 0.00 0.00 50 1016.4
20260509112703 68 65 2.6 8.7 0.00 0.00 0.00 50 1016.4
20260509112017 68 65 2.6 9.6 0.00 0.00 0.00 50 1016.5
20260509111115 68 39 1.7 7.0 0.00 0.00 0.00 52 1016.5
20260509110005 67 75 2.6 8.7 0.00 0.00 0.00 52 1016.4
20260509105406 67 56 2.6 8.7 0.00 0.00 0.00 52 1016.6
20260509104716 67 73 1.7 7.8 0.00 0.00 0.00 53 1017.0
20260509103605 66 75 2.6 9.6 0.00 0.00 0.00 54 1017.0
20260509102705 66 89 3.5 9.6 0.00 0.00 0.00 55 1017.1